Year,Month,Day,Hour,Minute,Value (Times are PST for temperature in C)
2006,07,27,00,00,14.90
2006,07,27,00,01,14.90
2006,07,27,00,02,14.90
2006,07,27,00,03,14.90
2006,07,27,00,04,14.90
2006,07,27,00,05,14.90
2006,07,27,00,06,14.90
2006,07,27,00,07,14.90
2006,07,27,00,08,15.00
2006,07,27,00,09,15.00
2006,07,27,00,10,15.00
2006,07,27,00,11,15.00
2006,07,27,00,12,15.00
2006,07,27,00,13,15.00
2006,07,27,00,14,14.90
2006,07,27,00,15,14.90
2006,07,27,00,16,14.90
2006,07,27,00,17,14.90
2006,07,27,00,18,14.90
2006,07,27,00,19,14.90
2006,07,27,00,20,14.90
2006,07,27,00,21,14.90
2006,07,27,00,22,14.90
2006,07,27,00,23,14.90
2006,07,27,00,24,14.90
2006,07,27,00,25,14.90
2006,07,27,00,26,14.90
2006,07,27,00,27,14.90
2006,07,27,00,28,14.90
2006,07,27,00,29,14.90
2006,07,27,00,30,14.90
2006,07,27,00,31,14.90
2006,07,27,00,32,14.90
2006,07,27,00,33,14.90
2006,07,27,00,34,14.90
2006,07,27,00,35,14.90
2006,07,27,00,36,14.90
2006,07,27,00,37,14.90
2006,07,27,00,38,14.90
2006,07,27,00,39,14.90
2006,07,27,00,40,14.80
2006,07,27,00,41,14.80
2006,07,27,00,42,14.80
2006,07,27,00,43,14.80
2006,07,27,00,44,14.80
2006,07,27,00,45,14.80
2006,07,27,00,46,14.80
2006,07,27,00,47,14.80
2006,07,27,00,48,14.80
2006,07,27,00,49,14.80
2006,07,27,00,50,14.80
2006,07,27,00,51,14.80
2006,07,27,00,52,14.80
2006,07,27,00,53,14.80
2006,07,27,00,54,14.80
2006,07,27,00,55,14.80
2006,07,27,00,56,14.80
2006,07,27,00,57,14.80
2006,07,27,00,58,14.80
2006,07,27,00,59,14.80
2006,07,27,01,00,14.80
2006,07,27,01,01,14.80
2006,07,27,01,02,14.80
2006,07,27,01,03,14.80
2006,07,27,01,04,14.80
2006,07,27,01,05,14.80
2006,07,27,01,06,14.80
2006,07,27,01,07,14.80
2006,07,27,01,08,14.80
2006,07,27,01,09,14.80
2006,07,27,01,10,14.80
2006,07,27,01,11,14.80
2006,07,27,01,12,14.80
2006,07,27,01,13,14.80
2006,07,27,01,14,14.80
2006,07,27,01,15,14.80
2006,07,27,01,16,14.80
2006,07,27,01,17,14.80
2006,07,27,01,18,14.70
2006,07,27,01,19,14.70
2006,07,27,01,20,14.70
2006,07,27,01,21,14.70
2006,07,27,01,22,14.80
2006,07,27,01,23,14.80
2006,07,27,01,24,14.70
2006,07,27,01,25,14.70
2006,07,27,01,26,14.70
2006,07,27,01,27,14.70
2006,07,27,01,28,14.70
2006,07,27,01,29,14.70
2006,07,27,01,30,14.70
2006,07,27,01,31,14.70
2006,07,27,01,32,14.70
2006,07,27,01,33,14.70
2006,07,27,01,34,14.60
2006,07,27,01,35,14.60
2006,07,27,01,36,14.60
2006,07,27,01,37,14.60
2006,07,27,01,38,14.60
2006,07,27,01,39,14.60
2006,07,27,01,40,14.60
2006,07,27,01,41,14.60
2006,07,27,01,42,14.60
2006,07,27,01,43,14.60
2006,07,27,01,44,14.60
2006,07,27,01,45,14.60
2006,07,27,01,46,14.60
2006,07,27,01,47,14.60
2006,07,27,01,48,14.60
2006,07,27,01,49,14.60
2006,07,27,01,50,14.60
2006,07,27,01,51,14.60
2006,07,27,01,52,14.60
2006,07,27,01,53,14.60
2006,07,27,01,54,14.60
2006,07,27,01,55,14.60
2006,07,27,01,56,14.60
2006,07,27,01,57,14.60
2006,07,27,01,58,14.50
2006,07,27,01,59,14.50
2006,07,27,02,00,14.50
2006,07,27,02,01,14.50
2006,07,27,02,02,14.50
2006,07,27,02,03,14.50
2006,07,27,02,04,14.50
2006,07,27,02,05,14.50
2006,07,27,02,06,14.50
2006,07,27,02,07,14.50
2006,07,27,02,08,14.50
2006,07,27,02,09,14.50
2006,07,27,02,10,14.50
2006,07,27,02,11,14.50
2006,07,27,02,12,14.50
2006,07,27,02,13,14.50
2006,07,27,02,14,14.50
2006,07,27,02,15,14.50
2006,07,27,02,16,14.50
2006,07,27,02,17,14.50
2006,07,27,02,18,14.50
2006,07,27,02,19,14.50
2006,07,27,02,20,14.50
2006,07,27,02,21,14.50
2006,07,27,02,22,14.50
2006,07,27,02,23,14.50
2006,07,27,02,24,14.50
2006,07,27,02,25,14.50
2006,07,27,02,26,14.50
2006,07,27,02,27,14.50
2006,07,27,02,28,14.50
2006,07,27,02,29,14.50
2006,07,27,02,30,14.50
2006,07,27,02,31,14.50
2006,07,27,02,32,14.50
2006,07,27,02,33,14.50
2006,07,27,02,34,14.50
2006,07,27,02,35,14.50
2006,07,27,02,36,14.50
2006,07,27,02,37,14.50
2006,07,27,02,38,14.50
2006,07,27,02,39,14.60
2006,07,27,02,40,14.60
2006,07,27,02,41,14.60
2006,07,27,02,42,14.60
2006,07,27,02,43,14.60
2006,07,27,02,44,14.60
2006,07,27,02,45,14.60
2006,07,27,02,46,14.50
2006,07,27,02,47,14.50
2006,07,27,02,48,14.50
2006,07,27,02,49,14.50
2006,07,27,02,50,14.50
2006,07,27,02,51,14.50
2006,07,27,02,52,14.50
2006,07,27,02,53,14.50
2006,07,27,02,54,14.50
2006,07,27,02,55,14.50
2006,07,27,02,56,14.50
2006,07,27,02,57,14.50
2006,07,27,02,58,14.50
2006,07,27,02,59,14.50
2006,07,27,03,00,14.50
2006,07,27,03,01,14.50
2006,07,27,03,02,14.40
2006,07,27,03,03,14.40
2006,07,27,03,04,14.40
2006,07,27,03,05,14.40
2006,07,27,03,06,14.40
2006,07,27,03,07,14.40
2006,07,27,03,08,14.40
2006,07,27,03,09,14.40
2006,07,27,03,10,14.40
2006,07,27,03,11,14.40
2006,07,27,03,12,14.40
2006,07,27,03,13,14.40
2006,07,27,03,14,14.40
2006,07,27,03,15,14.40
2006,07,27,03,16,14.30
2006,07,27,03,17,14.30
2006,07,27,03,18,14.30
2006,07,27,03,19,14.30
2006,07,27,03,20,14.30
2006,07,27,03,21,14.30
2006,07,27,03,22,14.30
2006,07,27,03,23,14.30
2006,07,27,03,24,14.30
2006,07,27,03,25,14.20
2006,07,27,03,26,14.20
2006,07,27,03,27,14.20
2006,07,27,03,28,14.20
2006,07,27,03,29,14.20
2006,07,27,03,30,14.20
2006,07,27,03,31,14.20
2006,07,27,03,32,14.10
2006,07,27,03,33,14.10
2006,07,27,03,34,14.00
2006,07,27,03,35,14.00
2006,07,27,03,36,13.90
2006,07,27,03,37,13.90
2006,07,27,03,38,13.80
2006,07,27,03,39,13.80
2006,07,27,03,40,13.80
2006,07,27,03,41,13.70
2006,07,27,03,42,13.70
2006,07,27,03,43,13.70
2006,07,27,03,44,13.70
2006,07,27,03,45,13.70
2006,07,27,03,46,13.60
2006,07,27,03,47,13.60
2006,07,27,03,48,13.60
2006,07,27,03,49,13.60
2006,07,27,03,50,13.60
2006,07,27,03,51,13.50
2006,07,27,03,52,13.50
2006,07,27,03,53,13.50
2006,07,27,03,54,13.50
2006,07,27,03,55,13.50
2006,07,27,03,56,13.50
2006,07,27,03,57,13.40
2006,07,27,03,58,13.40
2006,07,27,03,59,13.40
2006,07,27,04,00,13.40
2006,07,27,04,01,13.30
2006,07,27,04,02,13.30
2006,07,27,04,03,13.30
2006,07,27,04,04,13.30
2006,07,27,04,05,13.30
2006,07,27,04,06,13.30
2006,07,27,04,07,13.30
2006,07,27,04,08,13.30
2006,07,27,04,09,13.30
2006,07,27,04,10,13.30
2006,07,27,04,11,13.30
2006,07,27,04,12,13.30
2006,07,27,04,13,13.30
2006,07,27,04,14,13.30
2006,07,27,04,15,13.30
2006,07,27,04,16,13.30
2006,07,27,04,17,13.30
2006,07,27,04,18,13.30
2006,07,27,04,19,13.30
2006,07,27,04,20,13.30
2006,07,27,04,21,13.30
2006,07,27,04,22,13.30
2006,07,27,04,23,13.30
2006,07,27,04,24,13.30
2006,07,27,04,25,13.30
2006,07,27,04,26,13.30
2006,07,27,04,27,13.30
2006,07,27,04,28,13.30
2006,07,27,04,29,13.20
2006,07,27,04,30,13.20
2006,07,27,04,31,13.20
2006,07,27,04,32,13.30
2006,07,27,04,33,13.30
2006,07,27,04,34,13.30
2006,07,27,04,35,13.20
2006,07,27,04,36,13.20
2006,07,27,04,37,13.20
2006,07,27,04,38,13.20
2006,07,27,04,39,13.20
2006,07,27,04,40,13.20
2006,07,27,04,41,13.20
2006,07,27,04,42,13.20
2006,07,27,04,43,13.30
2006,07,27,04,44,13.30
2006,07,27,04,45,13.30
2006,07,27,04,46,13.30
2006,07,27,04,47,13.30
2006,07,27,04,48,13.30
2006,07,27,04,49,13.30
2006,07,27,04,50,13.30
2006,07,27,04,51,13.30
2006,07,27,04,52,13.30
2006,07,27,04,53,13.30
2006,07,27,04,54,13.30
2006,07,27,04,55,13.30
2006,07,27,04,56,13.30
2006,07,27,04,57,13.30
2006,07,27,04,58,13.30
2006,07,27,04,59,13.30
2006,07,27,05,00,13.30
2006,07,27,05,01,13.40
2006,07,27,05,02,13.30
2006,07,27,05,03,13.30
2006,07,27,05,04,13.40
2006,07,27,05,05,13.40
2006,07,27,05,06,13.40
2006,07,27,05,07,13.40
2006,07,27,05,08,13.40
2006,07,27,05,09,13.40
2006,07,27,05,10,13.40
2006,07,27,05,11,13.40
2006,07,27,05,12,13.40
2006,07,27,05,13,13.40
2006,07,27,05,14,13.40
2006,07,27,05,15,13.30
2006,07,27,05,16,13.30
2006,07,27,05,17,13.30
2006,07,27,05,18,13.30
2006,07,27,05,19,13.30
2006,07,27,05,20,13.30
2006,07,27,05,21,13.30
2006,07,27,05,22,13.30
2006,07,27,05,23,13.30
2006,07,27,05,24,13.30
2006,07,27,05,25,13.30
2006,07,27,05,26,13.30
2006,07,27,05,27,13.30
2006,07,27,05,28,13.30
2006,07,27,05,29,13.30
2006,07,27,05,30,13.30
2006,07,27,05,31,13.30
2006,07,27,05,32,13.30
2006,07,27,05,33,13.30
2006,07,27,05,34,13.30
2006,07,27,05,35,13.30
2006,07,27,05,36,13.30
2006,07,27,05,37,13.30
2006,07,27,05,38,13.30
2006,07,27,05,39,13.30
2006,07,27,05,40,13.30
2006,07,27,05,41,13.30
2006,07,27,05,42,13.30
2006,07,27,05,43,13.30
2006,07,27,05,44,13.30
2006,07,27,05,45,13.30
2006,07,27,05,46,13.30
2006,07,27,05,47,13.30
2006,07,27,05,48,13.30
2006,07,27,05,49,13.30
2006,07,27,05,50,13.20
2006,07,27,05,51,13.20
2006,07,27,05,52,13.20
2006,07,27,05,53,13.20
2006,07,27,05,54,13.20
2006,07,27,05,55,13.20
2006,07,27,05,56,13.20
2006,07,27,05,57,13.20
2006,07,27,05,58,13.20
2006,07,27,05,59,13.20
2006,07,27,06,00,13.20
2006,07,27,06,01,13.20
2006,07,27,06,02,13.20
2006,07,27,06,03,13.20
2006,07,27,06,04,13.20
2006,07,27,06,05,13.20
2006,07,27,06,06,13.20
2006,07,27,06,07,13.30
2006,07,27,06,08,13.30
2006,07,27,06,09,13.30
2006,07,27,06,10,13.30
2006,07,27,06,11,13.30
2006,07,27,06,12,13.30
2006,07,27,06,13,13.30
2006,07,27,06,14,13.30
2006,07,27,06,15,13.30
2006,07,27,06,16,13.30
2006,07,27,06,17,13.30
2006,07,27,06,18,13.30
2006,07,27,06,19,13.40
2006,07,27,06,20,13.40
2006,07,27,06,21,13.40
2006,07,27,06,22,13.50
2006,07,27,06,23,13.50
2006,07,27,06,24,13.50
2006,07,27,06,25,13.50
2006,07,27,06,26,13.60
2006,07,27,06,27,13.60
2006,07,27,06,28,13.60
2006,07,27,06,29,13.60
2006,07,27,06,30,13.70
2006,07,27,06,31,13.70
2006,07,27,06,32,13.70
2006,07,27,06,33,13.80
2006,07,27,06,34,13.80
2006,07,27,06,35,13.90
2006,07,27,06,36,13.90
2006,07,27,06,37,13.90
2006,07,27,06,38,13.90
2006,07,27,06,39,13.90
2006,07,27,06,40,13.90
2006,07,27,06,41,14.00
2006,07,27,06,42,14.10
2006,07,27,06,43,14.20
2006,07,27,06,44,14.30
2006,07,27,06,45,14.40
2006,07,27,06,46,14.50
2006,07,27,06,47,14.50
2006,07,27,06,48,14.50
2006,07,27,06,49,14.60
2006,07,27,06,50,14.60
2006,07,27,06,51,14.60
2006,07,27,06,52,14.70
2006,07,27,06,53,14.70
2006,07,27,06,54,14.80
2006,07,27,06,55,14.80
2006,07,27,06,56,14.80
2006,07,27,06,57,14.80
2006,07,27,06,58,14.80
2006,07,27,06,59,14.80
2006,07,27,07,00,14.80
2006,07,27,07,01,14.80
2006,07,27,07,02,14.80
2006,07,27,07,03,14.80
2006,07,27,07,04,14.80
2006,07,27,07,05,14.90
2006,07,27,07,06,14.90
2006,07,27,07,07,14.90
2006,07,27,07,08,15.00
2006,07,27,07,09,15.00
2006,07,27,07,10,15.10
2006,07,27,07,11,15.10
2006,07,27,07,12,15.20
2006,07,27,07,13,15.20
2006,07,27,07,14,15.30
2006,07,27,07,15,15.30
2006,07,27,07,16,15.40
2006,07,27,07,17,15.50
2006,07,27,07,18,15.60
2006,07,27,07,19,15.70
2006,07,27,07,20,15.70
2006,07,27,07,21,15.80
2006,07,27,07,22,15.80
2006,07,27,07,23,15.80
2006,07,27,07,24,15.80
2006,07,27,07,25,15.80
2006,07,27,07,26,15.80
2006,07,27,07,27,15.80
2006,07,27,07,28,15.80
2006,07,27,07,29,15.80
2006,07,27,07,30,15.80
2006,07,27,07,31,15.80
2006,07,27,07,32,15.70
2006,07,27,07,33,15.70
2006,07,27,07,34,15.60
2006,07,27,07,35,15.50
2006,07,27,07,36,15.50
2006,07,27,07,37,15.50
2006,07,27,07,38,15.40
2006,07,27,07,39,15.40
2006,07,27,07,40,15.40
2006,07,27,07,41,15.40
2006,07,27,07,42,15.40
2006,07,27,07,43,15.40
2006,07,27,07,44,15.40
2006,07,27,07,45,15.50
2006,07,27,07,46,15.50
2006,07,27,07,47,15.50
2006,07,27,07,48,15.60
2006,07,27,07,49,15.60
2006,07,27,07,50,15.60
2006,07,27,07,51,15.70
2006,07,27,07,52,15.70
2006,07,27,07,53,15.80
2006,07,27,07,54,15.80
2006,07,27,07,55,15.80
2006,07,27,07,56,15.80
2006,07,27,07,57,15.80
2006,07,27,07,58,15.80
2006,07,27,07,59,15.80
2006,07,27,08,00,15.90
2006,07,27,08,01,15.90
2006,07,27,08,02,15.90
2006,07,27,08,03,15.90
2006,07,27,08,04,15.90
2006,07,27,08,05,15.80
2006,07,27,08,06,15.80
2006,07,27,08,07,15.90
2006,07,27,08,08,15.90
2006,07,27,08,09,16.00
2006,07,27,08,10,16.10
2006,07,27,08,11,16.20
2006,07,27,08,12,16.20
2006,07,27,08,13,16.30
2006,07,27,08,14,16.30
2006,07,27,08,15,16.30
2006,07,27,08,16,16.40
2006,07,27,08,17,16.40
2006,07,27,08,18,16.50
2006,07,27,08,19,16.60
2006,07,27,08,20,16.60
2006,07,27,08,21,16.60
2006,07,27,08,22,16.60
2006,07,27,08,23,16.60
2006,07,27,08,24,16.70
2006,07,27,08,25,16.70
2006,07,27,08,26,16.70
2006,07,27,08,27,16.80
2006,07,27,08,28,16.80
2006,07,27,08,29,16.80
2006,07,27,08,30,16.80
2006,07,27,08,31,16.80
2006,07,27,08,32,16.90
2006,07,27,08,33,16.90
2006,07,27,08,34,17.00
2006,07,27,08,35,17.00
2006,07,27,08,36,17.10
2006,07,27,08,37,17.20
2006,07,27,08,38,17.30
2006,07,27,08,39,17.30
2006,07,27,08,40,17.30
2006,07,27,08,41,17.40
2006,07,27,08,42,17.40
2006,07,27,08,43,17.50
2006,07,27,08,44,17.60
2006,07,27,08,45,17.70
2006,07,27,08,46,17.80
2006,07,27,08,47,17.90
2006,07,27,08,48,18.00
2006,07,27,08,49,18.20
2006,07,27,08,50,18.40
2006,07,27,08,51,18.40
2006,07,27,08,52,18.50
2006,07,27,08,53,18.70
2006,07,27,08,54,18.80
2006,07,27,08,55,18.90
2006,07,27,08,56,18.90
2006,07,27,08,57,18.80
2006,07,27,08,58,18.80
2006,07,27,08,59,18.80
2006,07,27,09,00,18.90
2006,07,27,09,01,18.90
2006,07,27,09,02,18.90
2006,07,27,09,03,18.90
2006,07,27,09,04,18.80
2006,07,27,09,05,18.60
2006,07,27,09,06,18.50
2006,07,27,09,07,18.60
2006,07,27,09,08,18.70
2006,07,27,09,09,18.80
2006,07,27,09,10,18.90
2006,07,27,09,11,19.00
2006,07,27,09,12,19.10
2006,07,27,09,13,19.10
2006,07,27,09,14,19.10
2006,07,27,09,15,19.00
2006,07,27,09,16,18.90
2006,07,27,09,17,18.90
2006,07,27,09,18,18.90
2006,07,27,09,19,19.00
2006,07,27,09,20,19.20
2006,07,27,09,21,19.30
2006,07,27,09,22,19.40
2006,07,27,09,23,19.50
2006,07,27,09,24,19.60
2006,07,27,09,25,19.60
2006,07,27,09,26,19.80
2006,07,27,09,27,19.90
2006,07,27,09,28,20.00
2006,07,27,09,29,20.10
2006,07,27,09,30,20.30
2006,07,27,09,31,20.40
2006,07,27,09,32,20.50
2006,07,27,09,33,20.50
2006,07,27,09,34,20.60
2006,07,27,09,35,20.40
2006,07,27,09,36,20.00
2006,07,27,09,37,19.90
2006,07,27,09,38,19.90
2006,07,27,09,39,19.90
2006,07,27,09,40,19.90
2006,07,27,09,41,19.40
2006,07,27,09,42,19.20
2006,07,27,09,43,19.10
2006,07,27,09,44,19.10
2006,07,27,09,45,19.10
2006,07,27,09,46,19.10
2006,07,27,09,47,19.10
2006,07,27,09,48,19.10
2006,07,27,09,49,19.20
2006,07,27,09,50,19.20
2006,07,27,09,51,19.20
2006,07,27,09,52,19.20
2006,07,27,09,53,19.10
2006,07,27,09,54,19.10
2006,07,27,09,55,19.10
2006,07,27,09,56,19.20
2006,07,27,09,57,19.30
2006,07,27,09,58,19.30
2006,07,27,09,59,19.30
2006,07,27,10,00,19.20
2006,07,27,10,01,19.20
2006,07,27,10,02,19.20
2006,07,27,10,03,19.40
2006,07,27,10,04,19.40
2006,07,27,10,05,19.50
2006,07,27,10,06,19.60
2006,07,27,10,07,19.70
2006,07,27,10,08,19.90
2006,07,27,10,09,19.90
2006,07,27,10,10,20.20
2006,07,27,10,11,20.30
2006,07,27,10,12,20.40
2006,07,27,10,13,20.50
2006,07,27,10,14,20.60
2006,07,27,10,15,20.70
2006,07,27,10,16,20.70
2006,07,27,10,17,20.80
2006,07,27,10,18,20.90
2006,07,27,10,19,21.00
2006,07,27,10,20,21.00
2006,07,27,10,21,21.10
2006,07,27,10,22,21.20
2006,07,27,10,23,21.20
2006,07,27,10,24,21.30
2006,07,27,10,25,21.30
2006,07,27,10,26,21.30
2006,07,27,10,27,21.40
2006,07,27,10,28,21.40
2006,07,27,10,29,21.40
2006,07,27,10,30,21.40
2006,07,27,10,31,21.30
2006,07,27,10,32,21.30
2006,07,27,10,33,21.20
2006,07,27,10,34,21.10
2006,07,27,10,35,21.10
2006,07,27,10,36,21.10
2006,07,27,10,37,21.00
2006,07,27,10,38,21.00
2006,07,27,10,39,21.00
2006,07,27,10,40,21.00
2006,07,27,10,41,21.00
2006,07,27,10,42,20.90
2006,07,27,10,43,20.90
2006,07,27,10,44,20.80
2006,07,27,10,45,20.90
2006,07,27,10,46,21.00
2006,07,27,10,47,21.10
2006,07,27,10,48,21.10
2006,07,27,10,49,21.00
2006,07,27,10,50,21.00
2006,07,27,10,51,21.00
2006,07,27,10,52,21.00
2006,07,27,10,53,21.20
2006,07,27,10,54,21.20
2006,07,27,10,55,21.30
2006,07,27,10,56,21.10
2006,07,27,10,57,21.00
2006,07,27,10,58,20.90
2006,07,27,10,59,20.90
2006,07,27,11,00,20.80
2006,07,27,11,01,20.70
2006,07,27,11,02,20.60
2006,07,27,11,03,20.60
2006,07,27,11,04,20.70
2006,07,27,11,05,20.70
2006,07,27,11,06,20.80
2006,07,27,11,07,20.90
2006,07,27,11,08,21.00
2006,07,27,11,09,21.10
2006,07,27,11,10,21.10
2006,07,27,11,11,21.10
2006,07,27,11,12,21.10
2006,07,27,11,13,21.10
2006,07,27,11,14,21.10
2006,07,27,11,15,21.00
2006,07,27,11,16,21.00
2006,07,27,11,17,21.00
2006,07,27,11,18,21.10
2006,07,27,11,19,21.10
2006,07,27,11,20,21.20
2006,07,27,11,21,21.30
2006,07,27,11,22,21.40
2006,07,27,11,23,21.50
2006,07,27,11,24,21.60
2006,07,27,11,25,21.70
2006,07,27,11,26,21.70
2006,07,27,11,27,21.70
2006,07,27,11,28,21.80
2006,07,27,11,29,21.80
2006,07,27,11,30,21.70
2006,07,27,11,31,21.60
2006,07,27,11,32,21.40
2006,07,27,11,33,21.40
2006,07,27,11,34,21.40
2006,07,27,11,35,21.30
2006,07,27,11,36,21.40
2006,07,27,11,37,21.50
2006,07,27,11,38,21.60
2006,07,27,11,39,21.60
2006,07,27,11,40,21.60
2006,07,27,11,41,21.80
2006,07,27,11,42,21.90
2006,07,27,11,43,21.90
2006,07,27,11,44,22.00
2006,07,27,11,45,22.00
2006,07,27,11,46,22.00
2006,07,27,11,47,22.10
2006,07,27,11,48,22.10
2006,07,27,11,49,22.10
2006,07,27,11,50,22.10
2006,07,27,11,51,22.10
2006,07,27,11,52,22.20
2006,07,27,11,53,22.20
2006,07,27,11,54,22.20
2006,07,27,11,55,22.10
2006,07,27,11,56,22.10
2006,07,27,11,57,22.00
2006,07,27,11,58,21.80
2006,07,27,11,59,21.60
2006,07,27,12,00,21.40
2006,07,27,12,01,21.30
2006,07,27,12,02,21.30
2006,07,27,12,03,21.30
2006,07,27,12,04,21.40
2006,07,27,12,05,21.50
2006,07,27,12,06,21.60
2006,07,27,12,07,21.60
2006,07,27,12,08,21.60
2006,07,27,12,09,21.70
2006,07,27,12,10,21.80
2006,07,27,12,11,21.80
2006,07,27,12,12,21.80
2006,07,27,12,13,21.80
2006,07,27,12,14,21.80
2006,07,27,12,15,21.80
2006,07,27,12,16,21.80
2006,07,27,12,17,21.80
2006,07,27,12,18,21.80
2006,07,27,12,19,21.60
2006,07,27,12,20,21.50
2006,07,27,12,21,21.40
2006,07,27,12,22,21.30
2006,07,27,12,23,21.20
2006,07,27,12,24,21.00
2006,07,27,12,25,20.90
2006,07,27,12,26,20.80
2006,07,27,12,27,20.80
2006,07,27,12,28,20.80
2006,07,27,12,29,20.70
2006,07,27,12,30,20.60
2006,07,27,12,31,20.60
2006,07,27,12,32,20.70
2006,07,27,12,33,20.80
2006,07,27,12,34,20.90
2006,07,27,12,35,21.00
2006,07,27,12,36,21.10
2006,07,27,12,37,21.20
2006,07,27,12,38,21.30
2006,07,27,12,39,21.40
2006,07,27,12,40,21.50
2006,07,27,12,41,21.60
2006,07,27,12,42,21.60
2006,07,27,12,43,21.70
2006,07,27,12,44,21.90
2006,07,27,12,45,22.00
2006,07,27,12,46,22.20
2006,07,27,12,47,22.20
2006,07,27,12,48,22.20
2006,07,27,12,49,22.10
2006,07,27,12,50,21.90
2006,07,27,12,51,21.60
2006,07,27,12,52,21.40
2006,07,27,12,53,21.30
2006,07,27,12,54,21.20
2006,07,27,12,55,21.00
2006,07,27,12,56,21.00
2006,07,27,12,57,21.00
2006,07,27,12,58,21.00
2006,07,27,12,59,21.10
2006,07,27,13,00,21.20
2006,07,27,13,01,21.40
2006,07,27,13,02,21.40
2006,07,27,13,03,21.50
2006,07,27,13,04,21.60
2006,07,27,13,05,21.60
2006,07,27,13,06,21.60
2006,07,27,13,07,21.60
2006,07,27,13,08,21.70
2006,07,27,13,09,21.60
2006,07,27,13,10,21.50
2006,07,27,13,11,21.40
2006,07,27,13,12,21.40
2006,07,27,13,13,21.50
2006,07,27,13,14,21.60
2006,07,27,13,15,21.70
2006,07,27,13,16,21.70
2006,07,27,13,17,21.70
2006,07,27,13,18,21.80
2006,07,27,13,19,21.90
2006,07,27,13,20,22.00
2006,07,27,13,21,21.80
2006,07,27,13,22,21.70
2006,07,27,13,23,21.60
2006,07,27,13,24,21.70
2006,07,27,13,25,21.80
2006,07,27,13,26,21.80
2006,07,27,13,27,21.60
2006,07,27,13,28,21.50
2006,07,27,13,29,21.40
2006,07,27,13,30,21.40
2006,07,27,13,31,21.40
2006,07,27,13,32,21.30
2006,07,27,13,33,21.30
2006,07,27,13,34,21.40
2006,07,27,13,35,21.50
2006,07,27,13,36,21.60
2006,07,27,13,37,21.60
2006,07,27,13,38,21.60
2006,07,27,13,39,21.60
2006,07,27,13,40,21.80
2006,07,27,13,41,22.00
2006,07,27,13,42,22.30
2006,07,27,13,43,22.40
2006,07,27,13,44,22.20
2006,07,27,13,45,21.90
2006,07,27,13,46,21.80
2006,07,27,13,47,21.50
2006,07,27,13,48,21.40
2006,07,27,13,49,21.40
2006,07,27,13,50,21.40
2006,07,27,13,51,21.40
2006,07,27,13,52,21.30
2006,07,27,13,53,21.20
2006,07,27,13,54,21.10
2006,07,27,13,55,21.10
2006,07,27,13,56,21.10
2006,07,27,13,57,20.80
2006,07,27,13,58,20.60
2006,07,27,13,59,20.50
2006,07,27,14,00,20.40
2006,07,27,14,01,20.40
2006,07,27,14,02,20.30
2006,07,27,14,03,20.30
2006,07,27,14,04,20.20
2006,07,27,14,05,20.20
2006,07,27,14,06,20.20
2006,07,27,14,07,20.30
2006,07,27,14,08,20.50
2006,07,27,14,09,20.60
2006,07,27,14,10,20.60
2006,07,27,14,11,20.50
2006,07,27,14,12,20.40
2006,07,27,14,13,20.30
2006,07,27,14,14,20.10
2006,07,27,14,15,20.10
2006,07,27,14,16,20.10
2006,07,27,14,17,20.20
2006,07,27,14,18,20.30
2006,07,27,14,19,20.40
2006,07,27,14,20,20.50
2006,07,27,14,21,20.50
2006,07,27,14,22,20.50
2006,07,27,14,23,20.40
2006,07,27,14,24,20.40
2006,07,27,14,25,20.40
2006,07,27,14,26,20.30
2006,07,27,14,27,20.10
2006,07,27,14,28,20.00
2006,07,27,14,29,20.00
2006,07,27,14,30,20.10
2006,07,27,14,31,20.10
2006,07,27,14,32,20.50
2006,07,27,14,33,20.80
2006,07,27,14,34,21.00
2006,07,27,14,35,21.20
2006,07,27,14,36,21.30
2006,07,27,14,37,21.30
2006,07,27,14,38,21.40
2006,07,27,14,39,21.50
2006,07,27,14,40,21.60
2006,07,27,14,41,21.50
2006,07,27,14,42,21.40
2006,07,27,14,43,21.30
2006,07,27,14,44,21.20
2006,07,27,14,45,21.10
2006,07,27,14,46,20.90
2006,07,27,14,47,21.00
2006,07,27,14,48,21.00
2006,07,27,14,49,21.00
2006,07,27,14,50,21.00
2006,07,27,14,51,21.10
2006,07,27,14,52,21.10
2006,07,27,14,53,21.10
2006,07,27,14,54,21.00
2006,07,27,14,55,21.00
2006,07,27,14,56,21.00
2006,07,27,14,57,21.10
2006,07,27,14,58,21.20
2006,07,27,14,59,21.20
2006,07,27,15,00,21.10
2006,07,27,15,01,21.00
2006,07,27,15,02,20.90
2006,07,27,15,03,20.90
2006,07,27,15,04,20.80
2006,07,27,15,05,20.70
2006,07,27,15,06,20.70
2006,07,27,15,07,20.70
2006,07,27,15,08,20.70
2006,07,27,15,09,20.70
2006,07,27,15,10,20.60
2006,07,27,15,11,20.40
2006,07,27,15,12,20.30
2006,07,27,15,13,20.30
2006,07,27,15,14,20.30
2006,07,27,15,15,20.40
2006,07,27,15,16,20.40
2006,07,27,15,17,20.40
2006,07,27,15,18,20.30
2006,07,27,15,19,20.30
2006,07,27,15,20,20.20
2006,07,27,15,21,20.20
2006,07,27,15,22,20.20
2006,07,27,15,23,20.10
2006,07,27,15,24,20.20
2006,07,27,15,25,20.20
2006,07,27,15,26,20.20
2006,07,27,15,27,20.20
2006,07,27,15,28,20.20
2006,07,27,15,29,20.30
2006,07,27,15,30,20.30
2006,07,27,15,31,20.30
2006,07,27,15,32,20.20
2006,07,27,15,33,20.10
2006,07,27,15,34,19.90
2006,07,27,15,35,19.90
2006,07,27,15,36,20.00
2006,07,27,15,37,20.10
2006,07,27,15,38,20.20
2006,07,27,15,39,20.20
2006,07,27,15,40,20.20
2006,07,27,15,41,20.40
2006,07,27,15,42,20.50
2006,07,27,15,43,20.60
2006,07,27,15,44,20.70
2006,07,27,15,45,20.80
2006,07,27,15,46,20.90
2006,07,27,15,47,20.90
2006,07,27,15,48,20.90
2006,07,27,15,49,21.00
2006,07,27,15,50,21.10
2006,07,27,15,51,21.10
2006,07,27,15,52,21.10
2006,07,27,15,53,21.20
2006,07,27,15,54,21.30
2006,07,27,15,55,21.40
2006,07,27,15,56,21.30
2006,07,27,15,57,21.20
2006,07,27,15,58,21.00
2006,07,27,15,59,20.80
2006,07,27,16,00,20.70
2006,07,27,16,01,20.50
2006,07,27,16,02,20.50
2006,07,27,16,03,20.30
2006,07,27,16,04,20.20
2006,07,27,16,05,19.90
2006,07,27,16,06,19.40
2006,07,27,16,07,19.10
2006,07,27,16,08,18.80
2006,07,27,16,09,18.50
2006,07,27,16,10,18.40
2006,07,27,16,11,18.30
2006,07,27,16,12,18.30
2006,07,27,16,13,17.90
2006,07,27,16,14,17.70
2006,07,27,16,15,17.60
2006,07,27,16,16,17.50
2006,07,27,16,17,17.40
2006,07,27,16,18,17.40
2006,07,27,16,19,17.50
2006,07,27,16,20,17.40
2006,07,27,16,21,17.40
2006,07,27,16,22,17.40
2006,07,27,16,23,17.40
2006,07,27,16,24,17.40
2006,07,27,16,25,17.30
2006,07,27,16,26,17.30
2006,07,27,16,27,17.10
2006,07,27,16,28,17.10
2006,07,27,16,29,17.00
2006,07,27,16,30,17.00
2006,07,27,16,31,17.00
2006,07,27,16,32,17.00
2006,07,27,16,33,17.00
2006,07,27,16,34,16.90
2006,07,27,16,35,16.90
2006,07,27,16,36,16.90
2006,07,27,16,37,16.90
2006,07,27,16,38,16.90
2006,07,27,16,39,17.00
2006,07,27,16,40,17.10
2006,07,27,16,41,17.10
2006,07,27,16,42,17.10
2006,07,27,16,43,17.10
2006,07,27,16,44,17.20
2006,07,27,16,45,17.20
2006,07,27,16,46,17.20
2006,07,27,16,47,17.30
2006,07,27,16,48,17.40
2006,07,27,16,49,17.40
2006,07,27,16,50,17.50
2006,07,27,16,51,17.60
2006,07,27,16,52,17.70
2006,07,27,16,53,17.80
2006,07,27,16,54,17.90
2006,07,27,16,55,17.90
2006,07,27,16,56,17.90
2006,07,27,16,57,17.90
2006,07,27,16,58,17.90
2006,07,27,16,59,17.90
2006,07,27,17,00,17.80
2006,07,27,17,01,17.70
2006,07,27,17,02,17.60
2006,07,27,17,03,17.50
2006,07,27,17,04,17.30
2006,07,27,17,05,17.30
2006,07,27,17,06,17.20
2006,07,27,17,07,17.20
2006,07,27,17,08,17.20
2006,07,27,17,09,17.30
2006,07,27,17,10,17.40
2006,07,27,17,11,17.40
2006,07,27,17,12,17.40
2006,07,27,17,13,17.40
2006,07,27,17,14,17.40
2006,07,27,17,15,17.50
2006,07,27,17,16,17.50
2006,07,27,17,17,17.60
2006,07,27,17,18,17.60
2006,07,27,17,19,17.70